Location: Newark
(44.4156°N, 12.1972°E)
Time: 18:47:41
(UTC+00:00)

STARLINK-1076 - Pass Details

Date: 29 January 2020
Orbit: 348 x 351 km, 53.0° (Epoch: 18 February)

Event Time Altitude Azimuth Distance (km) Brightness Sun altitude
Rises 17:43:57 0° 306° (NW) 2,167 7.4 -15.9°
Reaches altitude 10° 17:46:02 10° 313° (NW) 1,322 6.1 -16.2°
Enters shadow 17:48:49 43° 24° (NNE) 511 3.2 -16.7°
